Location: Ferchesar
(52.6477°N, 12.4298°E)
Time: 04:43:46
(UTC+01:00)

Explorer 7 - Pass Details

Date: 13 December 2021
Orbit: 483 x 674 km, 50.3° (Epoch: 21 January)

Event Time Altitude Azimuth Distance (km) Brightness Sun altitude
Rises 01:50:02 0° 200° (SSW) 2,953 - -54.3°
Reaches altitude 10° 01:53:07 10° 180° (S) 2,015 - -54.0°
Maximum altitude 01:56:02 17° 141° (SE) 1,594 - -53.7°
Drops below altitude 10° 01:58:51 10° 102° (ESE) 1,950 - -53.3°
Sets 02:01:46 0° 82° (E) 2,813 - -53.0°
